Weather Roundup
Issued by NWS Springfield, MO

Home | Current Version | Previous Version | Text Only | Print | Product List | Glossary On
Versions: 1 2 3 4 5 6 7 8 9 10 11 12 13 14 15 16 17 18 19 20 21 22 23 24 25 26 27 28 29 30 31 32 33 34 35 36 37 38 39 40 41 42 43 44 45 46 47 48 49 50
000
NZUS99 KSGF 060707
HRRSGF

HOURLY WEATHER
NATIONAL WEATHER SERVICE SPRINGFIELD MO
200 AM CDT FRI MAY 06 2016

......SGF CWA......

CITY           SKY/WX    TMP DP  RH WIND       PRES   REMARKS
SPRINGFIELD    PTCLDY    45  37  73 S3        30.06S
JOPLIN         CLEAR     50  44  80 CALM      30.07F
WEST PLAINS    CLEAR     43  37  79 CALM      30.08S
ROLLA          CLEAR     41  37  86 S3        30.05S
OSAGE BEACH    CLEAR     43  32  65 CALM      30.07S

......SURROUNDING SGF CWA......

CITY           SKY/WX    TMP DP  RH WIND       PRES   REMARKS
CHANUTE        CLEAR     51  47  86 CALM      30.06F
PARSONS        CLEAR     50  49  96 CALM      30.08S
COFFEYVILLE    CLEAR     52  49  89 CALM      30.07S
EMPORIA        CLEAR     53  45  74 S7        30.06S
GROVE OK       CLEAR     50  48  93 CALM      30.08F
ROGERS AR      PTCLDY    48  42  80 CALM      30.09S
SILOAM SPRINGS CLEAR     50  39  66 CALM      30.08F
HARRISON AR    CLEAR     46  36  68 W5        30.08F
NEAR YELLVILLE CLEAR    N/A N/A N/A CALM      30.05S

......KANSAS AND MISSOURI......

CITY           SKY/WX    TMP DP  RH WIND       PRES   REMARKS
KANSAS CTY INT PTCLDY    54  41  61 S7        30.05S
DOWNTOWN KC    CLEAR     54  46  74 CALM      30.05S
COLUMBIA       CLEAR     50  40  68 SE5       30.06R
SEDALIA        CLEAR     52  39  61 S7        30.07S
ST JOSEPH      PTCLDY    52  47  83 CALM      30.04F
ST LOUIS       CLEAR     53  43  68 W3        30.05R
SPIRIT OF STL  CLEAR     46  44  93 CALM      30.04S
KIRKSVILLE     CLEAR     46  39  76 SW5       30.04S
WICHITA        CLEAR     58  44  60 SE5       30.06S
TOPEKA         CLEAR     52  50  93 CALM      30.05F
OLATHE         PTCLDY    53  43  68 CALM      30.06S

......TENNESSEE......

CITY           SKY/WX    TMP DP  RH WIND       PRES   REMARKS
MEMPHIS        PTCLDY    54  43  66 NE3       30.04S
NASHVILLE      CLEAR     48  43  82 W3        29.97F

......ARKANSAS.......

CITY           SKY/WX    TMP DP  RH WIND       PRES   REMARKS
FAYETTEVILLE   PTCLDY    44  44 100 CALM      30.09S
FT SMITH       CLEAR     54  48  80 NE3       30.06S
LITTLE ROCK    CLEAR     56  45  66 NE8       30.06S

......OKLAHOMA.......

CITY           SKY/WX    TMP DP  RH WIND       PRES   REMARKS
TULSA          PTCLDY    56  50  80 CALM      30.05S
PONCA CITY     CLEAR     50  47  89 CALM      30.06S
MCALESTER      MOCLDY    50  47  89 CALM      30.06F
OKLAHOMA CITY  PTCLDY    56  47  71 SE9       30.05F

......IOWA............

CITY           SKY/WX    TMP DP  RH WIND       PRES   REMARKS
DES MOINES     CLEAR     55  41  59 SW6       30.00S
QUAD CITIES    CLEAR     45  41  86 CALM      29.99S

......ILLINOIS........

CITY           SKY/WX    TMP DP  RH WIND       PRES   REMARKS
QUINCY         CLEAR     48  41  76 SW6       30.02F
CHICAGO        CLEAR     46  39  76 SW3       29.97F




USA.gov is the U.S. government's official web portal to all federal, state and local government web resources and services.